Location: Gro�bocka
(50.8204°N, 11.9702°E)
Time: 07:46:59
(UTC+00:00)

Cosmos 220 Rocket - Pass Details

Date: 29 October 2020
Orbit: 574 x 617 km, 74.0° (Epoch: 01 December)

Event Time Altitude Azimuth Distance (km) Brightness Sun altitude
Rises 17:46:17 0° 200° (SSW) 2,838 7.7 -18.6°
Reaches altitude 10° 17:48:30 10° 200° (SSW) 1,947 6.8 -18.9°
Maximum altitude 17:52:51 83° 112° (ESE) 621 3.9 -19.6°
Enters shadow 17:55:45 21° 26° (NNE) 1,379 5.6 -20.1°
